Voltar ao catálogo

STARLINK-35098

AtivoComunicaçõesVLEO
NORAD 65476·PAYLOAD·🇺🇸 United States

Lançado Sep 3, 2025 de Cape Canaveral Space Force Station

Loading…

Próximas Passagens (próximas 24 horas)

TLE

AtualizadoSource: CelesTrak SupGP

Época: Sep 14, 2026, 20:44 UTC

1 65476C 25195U   26257.86437500 -.00032750  00000+0 -10528-2 0  2578
2 65476  53.1580  97.5813 0001340  87.9444 284.5040 15.31728550    10

Acompanhe STARLINK-35098 em tempo real com AllMySat

Download on the App Store